This demonstration page uses our WeatherBlox Daily Observations layout. Learn more.

Left ArrowRight Arrow

Hourly Observations for October 17, 2022

Temp ( °F °C ) Dew Point ( °F °C ) Humidity (%) Winds ( mph kmh ) Pressure ( in mb ) Visibility ( mi km ) Precip ( " mm )
12:53 am 00:53 Clear 58 14.4 51 10.6 78 78 Calm 30.06 1018 10 16 0.00 0.00
1:53 am 01:53 Clear 57 13.9 51 10.6 80 80 undefined N/A 30.08 1019 N/A 0.00 0.00
2:53 am 02:53 Clear N/A N/A N/A undefined N/A 30.12 1020 N/A 0.00 0.00
3:53 am 03:53 Clear N/A N/A N/A undefined N/A 30.11 1020 N/A 0.00 0.00
4:53 am 04:53 Clear N/A N/A N/A undefined N/A 30.11 1020 N/A 0.00 0.00
5:53 am 05:53 Clear N/A N/A N/A undefined N/A 30.11 1020 N/A 0.00 0.00
6:53 am 06:53 Clear 54 12.2 48 8.9 80 80 ESE 3 6 30.08 1019 10 16 0.00 0.00
7:53 am 07:53 Sunny 51 10.6 48 8.9 89 89 Calm 30.09 1019 10 16 0.00 0.00
8:53 am 08:53 Sunny 55 12.8 49 9.4 80 80 Calm 30.10 1019 10 16 0.00 0.00
9:53 am 09:53 Sunny 56 13.3 50 10 80 80 Calm 30.10 1019 10 16 0.00 0.00
10:53 am 10:53 Sunny 62 16.7 51 10.6 67 67 Calm 30.09 1019 10 16 0.00 0.00
11:53 am 11:53 undefined 72 22.2 53 11.7 51 51 N 3 6 30.06 1018 8 13 0.00 0.00
12:53 pm 12:53 Sunny 77 25 53 11.7 43 43 VRB 3 6 30.04 1017 10 16 0.00 0.00
1:53 pm 13:53 Sunny 77 25 52 11.1 42 42 Calm 30.00 1016 10 16 0.00 0.00
2:53 pm 14:53 Sunny 80 26.7 48 8.9 33 33 Calm 29.97 1015 10 16 0.00 0.00
3:53 pm 15:53 Sunny 80 26.7 48 8.9 33 33 S 5 7 29.96 1014 10 16 0.00 0.00
4:53 pm 16:53 Sunny 80 26.7 50 10 35 35 Calm 29.96 1014 10 16 0.00 0.00
5:53 pm 17:53 Sunny 78 25.6 49 9.4 36 36 S 6 9 29.96 1014 10 16 0.00 0.00
6:53 pm 18:53 Clear 74 23.3 49 9.4 41 41 S 3 6 29.98 1015 10 16 0.00 0.00
7:53 pm 19:53 Clear 68 20 49 9.4 50 50 Calm 29.99 1016 10 16 0.00 0.00
8:53 pm 20:53 Clear 65 18.3 49 9.4 56 56 NNE 6 9 30.00 1016 10 16 0.00 0.00
9:53 pm 21:53 Clear 62 16.7 49 9.4 62 62 Calm 30.01 1016 10 16 0.00 0.00
10:53 pm 22:53 Clear 62 16.7 49 9.4 62 62 NNE 3 6 30.03 1017 10 16 0.00 0.00
11:53 pm 23:53 Clear 59 15 48 8.9 67 67 Calm 30.02 1017 10 16 0.00 0.00

Powered by AerisWeather